Location: Albuquerque Trailhead
(34.7934°N, 106.3736°W)
Time: 23:04:02
(UTC+00:00)

PRISM - Visible Passes

Search period start: 31 March 2023 00:00
Search period end: 10 April 2023 00:00
Orbit: 542 x 563 km, 98.3° (Epoch: 31 March)

Date Brightness Start Highest point End Pass type
(mag) Time Alt. Az. Time Alt. Az. Time Alt. Az.
02 Apr ? 12:27:22 10° ENE 12:29:30 14° E 12:31:35 10° SE visible
04 Apr ? 12:21:07 10° ENE 12:22:11 11° E 12:23:15 10° ESE visible
08 Apr ? 02:01:43 10° W 02:02:18 10° W 02:02:53 10° W visible
09 Apr ? 01:57:00 10° WSW 01:58:27 12° W 01:59:55 10° WNW visible
